This is the latest recevied weather packets stored in our database for station/object KQ4KX. If no packets are shown the sender has not sent any weather packets the latest 10 day(s).
| Time | Temp. | Humidity | Pressure | Rain* | Wind** | Luminosity | Snow |
|---|---|---|---|---|---|---|---|
| 1788547475 | 27.78° C | 84% | 1015 hPa | 0 mm | - | - | - |
| 1788546846 | 31.11° C | 76% | 1015.3 hPa | 0 mm | - | - | - |
| 1788546515 | 32.22° C | 76% | 1015.1 hPa | 0 mm | - | - | - |
| 1788545915 | 33.33° C | 74% | 1015.2 hPa | 0 mm | - | - | - |
| 1788545285 | 33.33° C | 73% | 1015.2 hPa | 0 mm | - | - | - |
| 1788544809 | 32.78° C | 77% | 1015.3 hPa | 0 mm | - | - | - |
| 1788544655 | 32.78° C | 77% | 1015.3 hPa | 0 mm | - | - | - |
| 1788544355 | 32.78° C | 74% | 1015.4 hPa | 0 mm | - | - | - |
| 1788544025 | 32.22° C | 76% | 1015.3 hPa | 0 mm | - | - | - |
| 1788543695 | 32.22° C | 75% | 1015.4 hPa | 0 mm | - | - | - |
| 1788543365 | 32.22° C | 75% | 1015.5 hPa | 0 mm | - | - | - |
| 1788543221 | 32.22° C | 77% | 1015.5 hPa | 0 mm | - | - | - |
| 1788543065 | 32.22° C | 77% | 1015.5 hPa | 0 mm | - | - | - |
| 1788542765 | 32.22° C | 75% | 1015.6 hPa | 0 mm | - | - | - |
| 1788542648 | 32.78° C | 74% | 1015.6 hPa | 0 mm | - | - | - |
| 1788542435 | 32.78° C | 74% | 1015.6 hPa | 0 mm | - | - | - |
| 1788542242 | 32.78° C | 76% | 1015.5 hPa | 0 mm | - | - | - |
| 1788542105 | 32.78° C | 76% | 1015.5 hPa | 0 mm | - | - | - |
| 1788541633 | 32.78° C | 77% | 1015.8 hPa | 0 mm | - | - | - |
| 1788541475 | 32.78° C | 77% | 1015.8 hPa | 0 mm | - | - | - |
| 1788541145 | 32.78° C | 77% | 1015.8 hPa | 0 mm | - | - | - |
| 1788539885 | 32.22° C | 76% | 1016.2 hPa | 0 mm | - | - | - |
| 1788539555 | 32.22° C | 79% | 1016.3 hPa | 0 mm | - | - | - |
| 1788539225 | 31.67° C | 81% | 1016.3 hPa | 0 mm | - | - | - |
| 1788538896 | 31.67° C | 79% | 1016.4 hPa | 0 mm | - | - | - |
* Rain latest hour (hover to see other rain measurements)
** Current wind speed in m/s (hover to see current wind gust speed)